This is the latest recevied weather packets stored in our database for station/object KE4AMH. If no packets are shown the sender has not sent any weather packets the latest 10 day(s).
| Time | Temp. | Humidity | Pressure | Rain* | Wind** | Luminosity | Snow |
|---|---|---|---|---|---|---|---|
| 1778094328 | 25.56° C | 69% | 1014.1 hPa | 0 mm | - | 254 W/m² | - |
| 1778094025 | 26.11° C | 66% | 1014.2 hPa | 0 mm | - | 218 W/m² | - |
| 1778093722 | 25.56° C | 69% | 1014.3 hPa | 0 mm | - | 356 W/m² | - |
| 1778093418 | 25.56° C | 68% | 1014.3 hPa | 0 mm | - | 199 W/m² | - |
| 1778093115 | 25° C | 69% | 1014.6 hPa | 0 mm | - | 194 W/m² | - |
| 1778092813 | 25° C | 69% | 1014.3 hPa | 0 mm | - | 133 W/m² | - |
| 1778092509 | 25° C | 68% | 1014 hPa | 0 mm | - | 119 W/m² | - |
| 1778092205 | 25° C | 68% | 1014.3 hPa | 0 mm | - | 103 W/m² | - |
| 1778091903 | 25° C | 69% | 1014.1 hPa | 0 mm | - | 153 W/m² | - |
| 1778091599 | 25° C | 69% | 1014.1 hPa | 0 mm | - | 164 W/m² | - |
| 1778091298 | 25° C | 67% | 1014 hPa | 0 mm | - | 194 W/m² | - |
| 1778090994 | 25.56° C | 67% | 1013.9 hPa | 0 mm | - | 254 W/m² | - |
| 1778090691 | 25.56° C | 66% | 1013.8 hPa | 0 mm | - | 192 W/m² | - |
| 1778090387 | 26.11° C | 66% | 1014.1 hPa | 0 mm | - | 586 W/m² | - |
| 1778090084 | 26.67° C | 65% | 1014.1 hPa | 0 mm | - | 343 W/m² | - |
| 1778089780 | 26.67° C | 64% | 1014.1 hPa | 0 mm | - | 581 W/m² | - |
| 1778089479 | 26.11° C | 66% | 1014 hPa | 0 mm | - | 456 W/m² | - |
| 1778089174 | 25.56° C | 66% | 1014 hPa | 0 mm | - | 904 W/m² | - |
| 1778088872 | 25.56° C | 67% | 1014.2 hPa | 0 mm | - | 404 W/m² | - |
| 1778088564 | 25° C | 69% | 1014.4 hPa | 0 mm | - | 339 W/m² | - |
| 1778088261 | 25° C | 70% | 1014.4 hPa | 0 mm | - | 254 W/m² | - |
| 1778087957 | 23.89° C | 70% | 1014.6 hPa | 0 mm | - | 168 W/m² | - |
| 1778087655 | 24.44° C | 70% | 1015 hPa | 0 mm | - | 154 W/m² | - |
| 1778087352 | 25° C | 70% | 1014.9 hPa | 0 mm | - | 185 W/m² | - |
| 1778087048 | 25° C | 69% | 1014.7 hPa | 0 mm | - | 528 W/m² | - |
* Rain latest hour (hover to see other rain measurements)
** Current wind speed in m/s (hover to see current wind gust speed)